Alexandria, LA

8:53 PM CST on February 19, 2018 (GMT -0600)
Alexandria International

Weather History for KAEX - December, 1998

Change the Weather History Date:

Sunday, December 27, 1998

  Actual Average Record
Temperature  
Mean Temperature 47 °F 49 °F  
Max Temperature 62 °F 59 °F 80 °F (2015)
Min Temperature 32 °F 40 °F 16 °F (1892)
Degree Days  
Heating Degree Days 18 16  
Month to date heating degree days 401  
Since 1 July heating degree days 726  
Moisture  
Dew Point 47 °F    
Average Humidity 88    
Maximum Humidity 100    
Minimum Humidity 72    
Precipitation  
Precipitation 0.00 in 0.16 in 4.63 in (1942)
Month to date precipitation 5.59  
Year to date precipitation 55.39  
Snow  
Snow 0.00 in - 0.00 in ()
Month to date snowfall  
Since 1 July snowfall  
Snow Depth -    
Sea Level Pressure  
Sea Level Pressure 30.08 in    
Wind  
Wind Speed 10 mph (SE)    
Max Wind Speed 14 mph    
Max Gust Speed 17 mph    
Visibility 4 miles    
Events Fog , Rain    
T = Trace of Precipitation, MM = Missing Value Source: NWS Daily Summary

Daily Weather History Graph

Daily Weather History Graph

Search for Another Location

Airport or City:

Trip Planner

Search our weather history database for the weather conditions in past years. The results will help you decide how hot, cold, wet, or windy it might be!

Date:

Astronomy

Dec. 27, 1998 Rise Set
Actual Time 7:07 AM CST 5:15 PM CST
Civil Twilight 6:40 AM CST 5:41 PM CST
Nautical Twilight 6:10 AM CST 6:12 PM CST
Astronomical Twilight 5:40 AM CST 6:41 PM CST
Moon 1:07 PM CST (12/27) 12:59 AM CST (12/27)
Length of Visible Light 11h 00m
Length of Day
10h 07m
Waxing Gibbous, 65% of the Moon is Illuminated
Dec 27
Waxing Gibbous
Jan 1
Full
Jan 9
Last Quarter
Jan 17
New
Jan 24
First Quarter

Hourly Weather History & Observations

Time (CST) Temp. Windchill Dew Point Humidity Pressure Visibility Wind Dir Wind Speed Gust Speed Precip Events Conditions
12:17 AM 32.0 °F 23.0 °F 30.2 °F 93% 30.17 in 0.1 mi SSE 11.5 mph - N/A Fog Fog
12:50 AM 33.8 °F 26.4 °F 32.0 °F 93% 30.17 in 0.1 mi South 9.2 mph - N/A Fog Fog
1:50 AM 37.4 °F 29.8 °F 37.4 °F 100% 30.15 in 0.2 mi SSE 11.5 mph 17.3 mph N/A Fog Fog
2:50 AM 37.4 °F 29.8 °F 37.4 °F 100% 30.16 in 1.0 mi South 11.5 mph - N/A   Overcast
3:50 AM 39.2 °F 33.0 °F 37.4 °F 93% 30.13 in 5.5 mi SE 9.2 mph - N/A   Overcast
4:50 AM 39.2 °F 33.0 °F 39.2 °F 100% 30.12 in 3.0 mi SE 9.2 mph - N/A   Overcast
5:50 AM 39.2 °F 33.0 °F 39.2 °F 100% 30.11 in 4.0 mi ESE 9.2 mph - N/A   Overcast
6:47 AM 41.0 °F 37.1 °F 39.2 °F 93% 30.12 in 4.0 mi ESE 5.8 mph - N/A   Overcast
7:03 AM 41.0 °F 36.4 °F 39.2 °F 93% 30.12 in 5.5 mi ESE 6.9 mph - N/A   Overcast
7:50 AM - - - N/A% 30.13 in 1.0 mi ESE 6.9 mph - N/A   Overcast
8:50 AM 42.8 °F 37.5 °F 41.0 °F 93% 30.14 in 2.0 mi ESE 9.2 mph - N/A   Mostly Cloudy
9:45 AM 46.4 °F 41.1 °F 42.8 °F 87% 30.15 in 5.0 mi SE 11.5 mph - N/A   Haze
10:50 AM 51.8 °F - 46.4 °F 82% 30.14 in 5.0 mi SE 13.8 mph - N/A   Haze
11:50 AM 55.4 °F - 48.2 °F 77% 30.09 in 5.0 mi SE 9.2 mph - N/A   Haze
12:50 PM 60.8 °F - 51.8 °F 72% 30.06 in 5.0 mi SE 13.8 mph - N/A   Haze
1:50 PM 62.6 °F - 53.6 °F 72% 30.03 in 5.0 mi ESE 13.8 mph - N/A   Haze
2:50 PM 57.2 °F - 53.6 °F 88% 30.03 in 5.0 mi SE 11.5 mph - N/A   Haze
3:50 PM 62.6 °F - 55.4 °F 77% 30.01 in 5.0 mi SE 11.5 mph - N/A   Overcast
4:50 PM 60.8 °F - 55.4 °F 82% 30.02 in 5.0 mi SE 6.9 mph - N/A   Overcast
5:50 PM 60.8 °F - 55.4 °F 82% 30.02 in 5.0 mi SE 5.8 mph - N/A   Haze
6:50 PM 59.0 °F - 55.4 °F 88% 30.01 in 10.0 mi SE 5.8 mph - N/A   Scattered Clouds
7:50 PM 59.0 °F - 55.4 °F 88% 30.00 in 10.0 mi SE 6.9 mph - N/A   Overcast
8:50 PM 62.6 °F - 57.2 °F 82% 30.00 in 10.0 mi SSE 9.2 mph - N/A   Overcast
10:00 PM 62.6 °F - 57.2 °F 82% 29.98 in 7.0 mi SSE 4.6 mph - N/A   Overcast
10:50 PM 60.8 °F - 59.0 °F 94% 29.96 in 5.0 mi SSE 8.1 mph - N/A Rain Light Rain
11:50 PM 60.8 °F - 60.8 °F 100% 29.96 in 3.0 mi West 4.6 mph - N/A Rain Rain